Flag for U.S.A. Weather past 2 weeks in Rockford, Illinois, U.S.A.

Now
2 °F

Passing clouds.


Feels Like: -9 °F
Forecast: -3 / 14 °F
Wind: 6 mph from Northwest

Location: Greater Rockford Airport

Current Time: Mar 5, 2015 at 6:04:30 AM

Latest Report: Mar 5, 2015 at 4:54 AM


Visibility: 10 mi

Pressure: 30.46 "Hg

Humidity: 65%

Dew point: -7 °F

Location of RockfordLocation

Historic Weather in Rockford — Graph

°F

Rockford temperature yesterday

Maximum temperature yesterday: 23 °F (at 12:54 AM)
Minimum temperature yesterday: 6 °F (at 11:54 PM)
Average temperature yesterday: 14 °F

Past Weeks' High & Low Weather Summary

 TemperatureHumidityPressure
High33 °F (Mar 3, 2:54 PM)92% (Mar 1, 7:54 AM)30.81 "Hg (Mar 1, 7:54 AM)
Low-15 °F (Feb 28, 5:54 AM)38% (Feb 25, 12:54 PM)29.67 "Hg (Mar 3, 1:54 PM)
Average12 °F64%30.30 "Hg
* Reported Feb 18 4:54 AM — Mar 5 4:54 AM, Rockford, Weather by CustomWeather, © 2015

Note: Actual official high and low records may vary slightly from our data, if they occured in-between our weather recording intervals... More about our weather records

Advertising

Rockford weather history for previous 24 hours

 ConditionsComfort  
Time TempWeatherWind HumidityBarometerVisibility
4:54 AM
Thu, Mar 5
2 °FPassing clouds.6 mph65%30.46 "Hg10 mi
3:54 AM3 °FPassing clouds.5 mph66%30.45 "Hg10 mi
2:54 AM5 °FPassing clouds.7 mph63%30.43 "Hg10 mi
1:54 AM6 °FPassing clouds.8 mph60%30.43 "Hg10 mi
12:54 AM5 °FPassing clouds.7 mph63%30.45 "Hg10 mi
11:54 PM
Wed, Mar 4
6 °FPassing clouds.9 mph60%30.43 "Hg10 mi
10:54 PM8 °FPassing clouds.9 mph57%30.42 "Hg10 mi
9:54 PM9 °FPassing clouds.13 mph58%30.42 "Hg10 mi
8:54 PM10 °FPassing clouds.12 mph55%30.38 "Hg10 mi
7:54 PM11 °FPassing clouds.9 mph53%30.36 "Hg10 mi
6:54 PM12 °FPassing clouds.6 mph53%30.31 "Hg10 mi
5:54 PM14 °FPassing clouds.12 mph49%30.31 "Hg10 mi
4:54 PM16 °FBroken clouds.16 mph47%30.27 "Hg10 mi
3:54 PM18 °FBroken clouds.12 mph43%30.26 "Hg10 mi
2:54 PM18 °FScattered clouds.15 mph47%30.24 "Hg10 mi
1:54 PM17 °FPassing clouds.14 mph51%30.22 "Hg10 mi
12:54 PM16 °FPartly sunny.16 mph53%30.24 "Hg10 mi
11:54 AM16 °FBroken clouds.16 mph53%30.22 "Hg10 mi
10:54 AM14 °FBroken clouds.17 mph58%30.23 "Hg10 mi
9:54 AM13 °FPartly sunny.15 mph61%30.20 "Hg10 mi
8:54 AM13 °FBroken clouds.16 mph61%30.17 "Hg10 mi
7:54 AM14 °FMostly cloudy.20 mph58%30.14 "Hg10 mi
6:54 AM13 °FOvercast.12 mph67%30.11 "Hg10 mi
Weather by CustomWeather, © 2015

See weather overviewHow to use our weather pages